#timestamp,LO_Frequency,Hit,StdDev 
1561939215.1,286046991.8,Y
1561939216.0,286046991.8,P
1561939235.8,286046995.0,N
1561939255.7,286046997.5,N
1561939275.5,286046996.9,N
1561939295.3,286046997.3,N
1561939315.2,286046998.0,N
1561939335.0,286046994.2,N
1561939335.9,286046994.2,N
1561939355.8,286046993.3,Y
1561939375.6,286046999.3,P
1561939395.4,286046997.3,N
1561939415.3,286046994.1,P
1561939435.1,286046993.9,Y
1561939455.9,286046997.7,P
1561939475.7,286046995.3,P
1561939495.5,286046996.0,P
1561939515.4,286046995.9,Y
1561939535.2,286046998.1,P
1561939555.0,286046998.8,N
1561939555.9,286046998.8,N
1561939575.8,286047002.6,N
1561939595.6,286047003.9,N
1561939615.5,286047001.8,N
1561939635.3,286047002.1,N
1561939655.1,286047002.2,N
1561939675.9,286047002.5,N
1561939695.7,286047002.7,N
1561939715.5,286046999.7,N
1561939735.4,286047001.0,N
1561939755.2,286046999.4,N
1561939775.1,286046999.2,N
1561939776.0,286046999.2,N
1561939795.8,286047000.9,N
1561939815.6,286046998.8,N
1561939835.5,286046999.6,N
1561939855.3,286046995.2,N
1561939875.1,286046996.1,N
1561939895.9,286046994.5,N
1561939915.7,286046992.8,N
1561939935.6,286046990.5,Y
1561939955.4,286046989.3,P
1561939975.2,286046985.7,N
1561939995.1,286046984.2,N
1561939996.0,286046984.2,N
1561940015.8,286046980.9,Y
1561940035.7,286046989.1,P
1561940055.5,286046990.7,P
1561940075.3,286046996.3,P
1561940095.2,286046996.9,N
1561940115.0,286047000.0,N
1561940115.9,286047000.0,N
1561940135.7,286047001.8,N
1561940155.6,286047001.9,N
1561940175.4,286047004.0,N
1561940195.3,286047002.8,N
1561940215.1,286047003.2,N
1561940216.0,286047003.2,N
1561940235.8,286047007.6,N
1561940255.7,286047008.8,N
1561940275.5,286047010.1,N
1561940295.4,286047011.9,N
1561940315.2,286047011.8,N
1561940335.0,286047013.0,N
1561940335.9,286047013.0,N
1561940355.8,286047012.1,N
1561940375.6,286047013.7,N
1561940395.5,286047015.3,N
1561940415.3,286047014.5,N
1561940435.1,286047014.5,N
1561940455.9,286047016.6,N
1561940475.7,286047018.4,N
1561940495.6,286047020.3,N
1561940515.4,286047020.3,N
1561940535.2,286047020.5,N
1561940555.1,286047023.0,N
1561940556.0,286047023.0,N
1561940575.8,286047024.7,N
1561940595.7,286047026.8,Y
1561940615.5,286047013.2,P
1561940635.3,286047013.2,P
1561940655.2,286047010.9,P
1561940675.0,286047010.3,Y
1561940675.9,286047010.3,P
1561940695.8,286046996.7,P
1561940715.6,286046992.0,N
1561940735.4,286046991.4,N
1561940755.3,286046989.1,N
1561940775.1,286046988.2,N
1561940795.9,286046984.3,N
1561940815.7,286046983.2,N
1561940835.5,286046978.9,N
1561940855.4,286046979.6,N
1561940875.2,286046975.7,N
1561940895.0,286046975.3,N
1561940896.0,286046975.3,N
1561940915.8,286046973.4,N
1561940935.6,286046973.1,N
1561940955.5,286046972.8,N
1561940975.3,286046973.3,N
1561940995.1,286046973.5,N
1561941015.9,286046974.7,N
1561941035.7,286046975.2,N
1561941055.6,286046973.3,N
1561941075.4,286046976.6,N
1561941095.2,286046979.6,N
1561941115.1,286046981.4,N
1561941116.0,286046981.4,N
1561941135.8,286046983.0,N
1561941155.6,286046983.5,N
1561941175.5,286046982.2,N
1561941195.3,286046985.6,N
1561941215.2,286046989.9,N
1561941235.9,286046991.4,N
1561941255.7,286046988.6,N
1561941275.6,286046990.2,N
1561941295.4,286046990.7,N
1561941315.3,286046987.9,N
1561941335.1,286046990.0,N
1561941355.9,286046991.4,N
1561941375.7,286046990.4,N
1561941395.5,286046992.5,N
1561941415.4,286046992.3,N
1561941435.2,286046993.2,N
1561941455.0,286046991.9,N
1561941456.0,286046991.9,N
1561941475.8,286046992.2,N
1561941495.6,286046992.8,N
1561941515.5,286046992.3,N
1561941535.3,286046993.8,N
1561941555.1,286046991.9,N
1561941575.9,286046993.5,N
1561941595.7,286046993.5,N
1561941615.6,286046988.9,N
1561941635.4,286046987.2,N
1561941655.2,286046987.2,Y
1561941675.1,286046998.3,P
1561941676.0,286046998.3,N
1561941695.8,286046997.4,N
1561941715.7,286046994.2,N
1561941735.5,286046993.9,N
1561941755.3,286046995.7,N
1561941775.2,286046995.2,N
1561941795.0,286046999.3,N
1561941795.9,286046999.3,N
1561941815.7,286047002.6,N
1561941835.6,286047005.0,N
1561941855.4,286047007.5,N
1561941875.3,286047006.1,N
1561941895.1,286047007.9,N
1561941896.0,286047007.9,N
1561941915.8,286047012.0,N
1561941935.7,286047015.2,N
1561941955.5,286047014.3,N
1561941975.3,286047014.1,N
1561941995.2,286047017.8,N
1561942015.0,286047019.3,N
1561942015.9,286047019.3,N
1561942035.8,286047021.7,N
1561942055.6,286047021.0,N
1561942075.4,286047037.5,Y
1561942095.3,286047014.2,P
1561942115.1,286047018.3,P
1561942135.9,286047021.3,P
1561942155.7,286047022.3,Y
1561942175.5,286047010.3,P
1561942195.4,286047010.7,P
1561942215.2,286047008.9,P
1561942235.0,286047007.8,Y
1561942235.9,286047007.8,P
1561942255.8,286046998.6,N
1561942275.6,286047002.3,N
1561942295.5,286047000.0,N
1561942315.3,286047002.0,N
1561942335.1,286047003.3,N
1561942355.9,286047004.9,N
1561942375.7,286047009.8,N
1561942395.5,286047010.5,N
1561942415.4,286047009.3,N
1561942435.2,286047012.6,N
1561942455.1,286047012.7,N
1561942456.0,286047012.7,N
1561942475.8,286047013.2,N
1561942495.6,286047011.9,N
1561942515.5,286047016.1,Y
1561942535.3,286047006.1,P
1561942555.2,286047007.4,P
1561942575.9,286047005.7,P
1561942595.7,286047004.6,Y
1561942615.6,286046998.3,P
1561942635.4,286046996.5,N
1561942655.2,286046998.5,N
1561942675.1,286046999.8,N
1561942676.0,286046999.8,N
1561942695.8,286046999.8,N
1561942715.7,286047001.8,N
1561942735.5,286047003.4,N
1561942755.3,286047001.4,N
1561942775.2,286047003.5,N
1561942795.0,286047004.3,N
1561942795.9,286047004.3,N
